[[{"header":{"parameterUnit":"m.s-1","parameterCategory":1,"la1":30.2992,"la2":30.254,"lo1":-89.0895,"lo2":-89.0443,"dy":0.0025,"dx":0.0025,"nx":19,"ny":19,"refTime":"2026-04-12T03:00:00:Z","depth":0,"parameterNumber":2,"parameterNumberName":"U-component_of_WINDS"},"data":[0,0,0,-4.6578,-4.6582,-4.6726,-4.6726,-4.6917,-4.6919,0,0,0,0,0,0,0,0,0,0,0,-4.654,-4.6542,-4.6578,-4.6582,-4.6725,-4.6726,-4.6917,-4.6919,0,0,0,0,0,0,0,0,0,0,0,-4.654,-4.6542,-4.6543,-4.6582,-4.6725,-4.6726,-4.6916,-4.6805,0,0,0,0,0,0,0,0,0,0,-4.6664,-4.6634,-4.6541,-4.6543,-4.6583,-4.6725,-4.6726,-4.68,-4.6812,-4.6855,0,-4.6895,0,-4.691,-4.6932,-4.6933,0,0,0,-4.6578,-4.6623,-4.6658,-4.6544,-4.6585,-4.6725,-4.666,-4.6807,-4.6821,-4.6872,-4.6898,-4.6905,-4.6914,-4.6934,-4.6935,-4.7198,-4.72,0,0,-4.657,-4.6568,-4.6649,-4.6668,-4.6647,-4.6655,-4.6664,-4.6815,-4.6843,-4.6899,-4.6909,-4.6917,-4.6935,-4.6936,-4.7197,-4.7199,0,0,0,-4.655,-4.6563,-4.6594,-4.666,-4.6686,-4.6659,-4.667,-4.6836,-4.6847,-4.6911,-4.6919,-4.6936,-4.6939,-4.7196,-4.7198,-4.7265,0,0,0,-4.6545,-4.6551,-4.6591,-4.6591,-4.6683,-4.6763,-4.6688,-4.6836,-4.6853,-4.6918,-4.6936,-4.694,-4.7194,-4.7197,-4.726,-4.7297,0,0,0,-4.6529,-4.6549,-4.6572,-4.6591,-4.6653,-4.676,-4.6779,-4.684,-4.6858,-4.6933,-4.6941,-4.7193,-4.7196,-4.7256,-4.7289,-4.7365,0,0,0,-4.6512,-4.6629,-4.6573,-4.6707,-4.6652,-4.6802,-4.6778,-4.689,-4.6963,-4.6937,-4.7194,-4.7198,-4.7254,-4.7284,-4.736,-4.7428,-4.7456,0,0,-4.6658,-4.6647,-4.6726,-4.668,-4.684,-4.678,-4.695,-4.7018,-4.7026,-4.714,-4.7147,-4.7262,-4.7288,-4.7364,-4.762,-4.7642,0,0,0,-4.6772,-4.6828,-4.6871,-4.6941,-4.6997,-4.7047,-4.7089,-4.7115,-4.7213,-4.7085,-4.7311,-4.7327,-4.7371,-4.7404,-4.7423,-4.7461,-4.7213,-4.7213,-4.7212,-4.6974,-4.6981,-4.7112,-4.7136,-4.7205,-4.7249,-4.7304,-4.7346,-4.7331,-4.7385,-4.7418,-4.7572,-4.761,-4.7625,-4.7664,-4.7456,-4.7456,-4.7457,-4.7457,-4.7188,-4.7269,-4.725,-4.737,-4.7376,-4.7478,-4.7526,-4.7512,-4.7607,-4.7547,-4.7587,-4.7519,-4.7649,-4.7684,-4.7462,-4.7461,-4.746,-4.746,-4.7459,-4.7319,-4.7359,-4.739,-4.7493,-4.7572,-4.7594,-4.7687,-4.7689,-4.7692,-4.7732,-4.7767,-4.7766,-4.7764,-4.7749,-4.775,-4.775,-4.7751,-4.7751,-4.7751,-4.7442,-4.7475,-4.7553,-4.7625,-4.7671,-4.7733,-4.7781,-4.7827,-4.7878,-4.7872,-4.7873,-4.7852,-4.7662,-4.7613,-4.776,-4.7758,-4.7757,-4.7756,-4.7756,-4.7653,-4.7606,-4.7727,-4.7774,-4.7859,-4.7938,-4.7942,-4.8036,-4.8074,-4.812,-4.8093,-4.7953,-4.794,-4.7924,-4.7884,-4.8092,-4.8092,-4.8092,-4.8092,-4.7762,-4.7757,-4.7882,-4.7957,-4.8031,-4.8048,-4.8184,-4.8225,-4.8258,-4.8283,-4.8254,-4.8201,-4.8185,-4.8182,-4.8161,-4.8123,-4.8387,-4.8388,-4.8388,-4.7891,-4.7894,-4.8009,-4.8043,-4.8111,-4.817,-4.8298,-4.8385,-4.8414,-4.84,-4.8302,-4.8289,-4.8204,-4.8176,-4.8155,-4.8123,-4.8053,0,0]},{"header":{"parameterUnit":"m.s-1","parameterCategory":1,"la1":30.2992,"la2":30.254,"lo1":-89.0895,"lo2":-89.0443,"dy":0.0025,"dx":0.0025,"nx":19,"ny":19,"refTime":"2026-04-12T03:00:00:Z","depth":0,"parameterNumber":3,"parameterNumberName":"V-component_of_WINDS"},"data":[0,0,0,3.1065,3.1066,3.1155,3.1156,3.1234,3.1235,0,0,0,0,0,0,0,0,0,0,0,3.1019,3.1019,3.1065,3.1067,3.1155,3.1156,3.1234,3.1235,0,0,0,0,0,0,0,0,0,0,0,3.102,3.1019,3.1019,3.1067,3.1155,3.1156,3.1234,3.1179,0,0,0,0,0,0,0,0,0,0,3.1099,3.1038,3.1019,3.1019,3.1067,3.1155,3.1156,3.1177,3.1182,3.118,0,3.1174,0,3.1206,3.1238,3.1238,0,0,0,3.108,3.1034,3.1075,3.1019,3.1068,3.1155,3.1119,3.118,3.1187,3.1187,3.1176,3.118,3.1207,3.1238,3.1239,3.1185,3.1184,0,0,3.1075,3.1024,3.1071,3.1078,3.1065,3.1116,3.1122,3.1185,3.1168,3.1176,3.1182,3.1208,3.1239,3.1239,3.1186,3.1185,0,0,0,3.1052,3.102,3.1061,3.1074,3.1093,3.1118,3.1125,3.1165,3.1183,3.1183,3.1209,3.1239,3.1239,3.1187,3.1186,3.1094,0,0,0,3.105,3.1007,3.1058,3.1028,3.1091,3.1131,3.1103,3.1179,3.1188,3.1209,3.1239,3.124,3.1188,3.1187,3.1099,3.1059,0,0,0,3.102,3.1004,3.101,3.1025,3.1062,3.1131,3.1153,3.1182,3.1203,3.1238,3.124,3.1189,3.1187,3.1103,3.1066,3.1031,0,0,0,3.0973,3.0925,3.1008,3.0965,3.1061,3.1075,3.1153,3.1165,3.1184,3.1239,3.1188,3.1186,3.1105,3.107,3.1035,3.0992,3.097,0,0,3.0884,3.0913,3.0892,3.0968,3.0955,3.1065,3.1038,3.1102,3.115,3.117,3.117,3.1098,3.1066,3.1032,3.0863,3.0844,0,0,0,3.0846,3.083,3.0838,3.0856,3.0906,3.0946,3.102,3.1045,3.1065,3.1151,3.1077,3.106,3.1042,3.1024,3.1008,3.0996,3.1176,3.1176,3.1176,3.0645,3.0713,3.0683,3.0762,3.0778,3.0858,3.0877,3.0923,3.0983,3.0965,3.0971,3.086,3.0837,3.0826,3.0812,3.0954,3.0954,3.0953,3.0953,3.0521,3.051,3.0596,3.0598,3.0669,3.067,3.0745,3.0788,3.0799,3.0861,3.0848,3.0908,3.0804,3.0795,3.0947,3.0948,3.0949,3.0949,3.095,3.0397,3.0404,3.0437,3.0472,3.0491,3.0572,3.058,3.0644,3.0703,3.0691,3.0705,3.0707,3.0716,3.0693,3.0693,3.0693,3.0692,3.0692,3.0692,3.0255,3.0295,3.0295,3.0347,3.0369,3.0405,3.0486,3.0508,3.0548,3.0594,3.0595,3.0657,3.0782,3.0811,3.0686,3.0687,3.0688,3.0688,3.0689,3.0103,3.0149,3.0148,3.017,3.0237,3.0252,3.0336,3.0376,3.0403,3.0405,3.0471,3.0553,3.0586,3.0598,3.0623,3.0457,3.0457,3.0457,3.0457,2.9998,3.0022,3.0038,3.0069,3.0106,3.0183,3.0179,3.0242,3.0313,3.0334,3.0368,3.0407,3.0417,3.0444,3.046,3.0484,3.0286,3.0286,3.0286,2.9908,2.994,2.9925,2.9999,3.0058,3.0105,3.0105,3.0135,3.0225,3.028,3.0352,3.0359,3.0423,3.044,3.0494,3.0518,3.0564,0,0]}]]